This is the latest recevied weather packets stored in our database for station/object W4ZHA. If no packets are shown the sender has not sent any weather packets the latest 10 day(s).
| Time | Temp. | Humidity | Pressure | Rain* | Wind** | Luminosity | Snow |
|---|---|---|---|---|---|---|---|
| 1787411061 | 27.78° C | 64% | 1017.2 hPa | 0 mm | - | 63 W/m² | - |
| 1787410757 | 27.22° C | 65% | 1016.8 hPa | 0 mm | - | 72 W/m² | - |
| 1787410452 | 27.22° C | 65% | 1017.2 hPa | 0 mm | - | 59 W/m² | - |
| 1787410147 | 27.22° C | 65% | 1017.2 hPa | 0 mm | - | 52 W/m² | - |
| 1787409844 | 26.67° C | 66% | 1017.2 hPa | 0 mm | - | 52 W/m² | - |
| 1787409539 | 26.67° C | 66% | 1017.2 hPa | 0 mm | - | 52 W/m² | - |
| 1787409235 | 26.11° C | 66% | 1017.2 hPa | 0 mm | - | 53 W/m² | - |
| 1787408931 | 26.11° C | 67% | 1017.2 hPa | 0 mm | - | 54 W/m² | - |
| 1787408321 | 26.11° C | 67% | 1017.2 hPa | 0 mm | - | 53 W/m² | - |
| 1787408017 | 26.11° C | 69% | 1017.2 hPa | 0 mm | - | 86 W/m² | - |
| 1787407712 | 25° C | 72% | 1017.2 hPa | 0 mm | - | 132 W/m² | - |
| 1787407407 | 25° C | 77% | 1016.8 hPa | 0 mm | - | 59 W/m² | - |
| 1787407097 | 25° C | 97% | 1017.2 hPa | 0 mm | - | 77 W/m² | - |
| 1787406793 | 25° C | 97% | 1017.2 hPa | 0 mm | - | 71 W/m² | - |
| 1787406493 | 25° C | 99% | 1017.2 hPa | 0 mm | - | 70 W/m² | - |
| 1787406190 | 24.44° C | 99% | 1017.2 hPa | 0 mm | - | 39 W/m² | - |
| 1787405885 | 24.44° C | 99% | 1017.2 hPa | 0 mm | - | 39 W/m² | - |
| 1787405582 | 24.44° C | 99% | 1016.8 hPa | 0 mm | - | 36 W/m² | - |
| 1787405281 | 24.44° C | 99% | 1017.2 hPa | 0 mm | - | 36 W/m² | - |
| 1787404978 | 24.44° C | 99% | 1017.2 hPa | 0 mm | - | 37 W/m² | - |
| 1787404673 | 24.44° C | 99% | 1017.2 hPa | 0 mm | - | 37 W/m² | - |
| 1787404372 | 25° C | 99% | 1017.2 hPa | 0 mm | - | 48 W/m² | - |
| 1787404068 | 25° C | 99% | 1016.8 hPa | 0 mm | - | 65 W/m² | - |
| 1787403764 | 24.44° C | 99% | 1016.8 hPa | 0 mm | - | 55 W/m² | - |
| 1787403463 | 24.44° C | 99% | 1016.8 hPa | 0 mm | - | 43 W/m² | - |
* Rain latest hour (hover to see other rain measurements)
** Current wind speed in m/s (hover to see current wind gust speed)